Kuiper-00081

operational
NORAD ID: 65132 Int'l Des: 2025-171 Owner: KUIP Country: US Constellation: kuiper
LEOCIRCULAR

About Kuiper-00081

Description loading...

Live Position

Loading 3D Globe...

Upcoming Passes

Altitude History

Altitude vs Time

uPlot chart will show altitude changes over time

Two-Line Element Set

1 65132U 25171A 26063.45451861 -.00010646 00000-0 -13699-2 0 9993
2 65132 51.9035 171.2238 0000103 9.7678 350.3287 14.79926349 32262
Epoch: Mar 4, 2026 • Age: 22 hours

Current Status

Altitude 639.3 km
Velocity 7.54 km/s
Sub-Earth Point -31.68°S, 109.1°W
Launch Date Aug 11, 2025
Age 0.5 years
Type internet

Technical Details

Classification Payload
Mass 490.00 kg
Dry Mass 490.00 kg
Total Mass 490.00 kg
Length 1.80 m
Diameter 0.70 m
Span 5.00 m
Shape Box + 2 pan
Manufacturer KUIP
Bus Type Kuiper
Phase Status In Orbit
Owner/State KUIP/US

Large Constellations

Loading constellations...